Location: Mountain Grove
(34.0887°N, 86.6172°W)
Time: 21:26:45
(UTC+00:00)

SL-16 R/B - Pass Details

Date: 14 July 2020
Orbit: 985 x 1006 km, 99.5° (Epoch: 08 August)

Event Time Altitude Azimuth Distance (km) Brightness Sun altitude
Exits shadow 07:12:18 50° 103° (ESE) 1,253 3.0 -31.2°
Maximum altitude 07:13:14 55° 71° (ENE) 1,191 3.0 -31.1°
Drops below altitude 10° 07:19:19 10° 356° (N) 2,784 5.6 -30.6°
Sets 07:21:51 0° 352° (N) 3,739 6.4 -30.4°
